Live-Position
3D-Globus wird geladen...
Über Starlink 5294
Group: 3 satellites
Beschreibung wird geladen...
Nächste Überflüge
Passes for default location (London). Set your location on the main map for personalized predictions.
Höhenverlauf
Loading altitude history...
No altitude history available
Zweizeiliger Elementsatz
1 54159U 22141C 26122.72658073 -.00000138 00000-0 94039-5 0 9998
2 54159 53.2169 131.6417 0001424 83.7986 276.3169 15.08835225193878
Epoch: 2. Mai 2026 •
Age: 12 hours
Aktueller Status
Höhe 540.1 km
Geschwindigkeit 7.60 km/s
Subsatellitenpunkt 23.06°N,
8.61°W
Startdatum 28. Okt. 2022
Alter 3.5 years
Typ internet
Startgruppe
Falcon 9 •
Group 4-31 •
49 satellites
Starlink 5290
54157
Starlink 5297 54158
Starlink 5233 54160
Starlink 5269 54161
Starlink 5273 54162
Starlink 5161 54163
Starlink 5278 54164
Starlink 5279 54165
Starlink 5280 54166
Starlink 5243 54167
Starlink 5245 54168
Starlink 5282 54169
Starlink 5155 54170
Starlink 5117 54172
Starlink 5242 54173
Starlink 5248 54174
Starlink 5256 54175
Starlink 5154 54176
Starlink 5186 54177
Starlink 5164 54178
...and 28 more
Technische Details
Klassifizierung Payload
Masse 305.00 kg
Trockenmasse 290.00 kg
Gesamtmasse 305.00 kg
Länge 0.20 m
Durchmesser 2.80 m
Spannweite 9.00 m
Form Box + pan
Hersteller SPXS
Bus-Typ Starlink
Phasenstatus In Orbit
Besitzer/Staat SPXS/US
Most Searched
Loading...